TimeMDT,TemperatureF,Dew PointF,Humidity,Sea Level PressureIn,VisibilityMPH,Wind Direction,Wind SpeedMPH,Gust SpeedMPH,PrecipitationIn,Events,Conditions,WindDirDegrees,DateUTC
12:00 AM,51.8,37.4,58,30.02,10.0,SSW,6.9,-,N/A,,Clear,210,2012-10-11 06:00:00
12:19 AM,50.0,37.4,62,30.02,10.0,South,4.6,-,N/A,,Clear,190,2012-10-11 06:19:00
12:40 AM,50.0,37.4,62,30.01,10.0,SW,4.6,-,N/A,,Clear,220,2012-10-11 06:40:00
1:03 AM,55.4,35.6,47,30.01,10.0,SW,11.5,-,N/A,,Clear,220,2012-10-11 07:03:00
1:50 AM,55.4,32.0,41,30.01,10.0,SSW,11.5,-,N/A,,Clear,200,2012-10-11 07:50:00
2:04 AM,55.4,32.0,41,30.01,10.0,SSW,11.5,-,N/A,,Clear,210,2012-10-11 08:04:00
2:23 AM,55.4,32.0,41,30.02,10.0,SW,11.5,-,N/A,,Clear,220,2012-10-11 08:23:00
2:45 AM,55.4,32.0,41,30.02,10.0,SW,12.7,-,N/A,,Clear,220,2012-10-11 08:45:00
3:04 AM,57.2,32.0,38,30.01,10.0,SSW,17.3,-,N/A,,Clear,210,2012-10-11 09:04:00
3:34 AM,59.0,32.0,36,30.01,10.0,SSW,16.1,-,N/A,,Clear,210,2012-10-11 09:34:00
3:54 AM,57.2,32.0,38,30.01,10.0,SSW,15.0,-,N/A,,Clear,210,2012-10-11 09:54:00
4:03 AM,57.2,32.0,38,30.01,10.0,SSW,15.0,-,N/A,,Clear,210,2012-10-11 10:03:00
4:27 AM,57.2,30.2,36,30.01,10.0,SSW,16.1,-,N/A,,Clear,200,2012-10-11 10:27:00
4:52 AM,55.4,32.0,41,30.02,10.0,SSW,11.5,-,N/A,,Clear,210,2012-10-11 10:52:00
5:04 AM,55.4,30.2,38,30.02,10.0,SW,11.5,-,N/A,,Clear,220,2012-10-11 11:04:00
5:36 AM,50.0,32.0,50,30.05,10.0,West,6.9,-,N/A,,Clear,270,2012-10-11 11:36:00
5:56 AM,50.0,32.0,50,30.05,10.0,WNW,6.9,-,N/A,,Clear,290,2012-10-11 11:56:00
6:16 AM,50.0,32.0,50,30.06,10.0,West,5.8,-,N/A,,Clear,260,2012-10-11 12:16:00
6:36 AM,50.0,32.0,50,30.06,10.0,WSW,5.8,-,N/A,,Clear,250,2012-10-11 12:36:00
6:51 AM,51.8,32.0,47,30.06,10.0,SW,8.1,-,N/A,,Clear,220,2012-10-11 12:51:00
8:47 AM,59.0,33.8,39,30.12,40.0,SW,4.6,-,N/A,,Mostly Cloudy,230,2012-10-11 14:47:00
9:47 AM,62.6,35.6,37,30.16,40.0,North,13.8,17.3,N/A,,Mostly Cloudy,350,2012-10-11 15:47:00
10:55 AM,59.0,39.2,48,30.17,40.0,NE,12.7,-,N/A,,Mostly Cloudy,40,2012-10-11 16:55:00
11:47 AM,62.6,39.2,42,30.18,40.0,NE,11.5,-,N/A,,Mostly Cloudy,40,2012-10-11 17:47:00
12:47 PM,62.6,39.2,42,30.16,40.0,NE,11.5,-,N/A,,Scattered Clouds,40,2012-10-11 18:47:00
2:47 PM,62.6,35.6,37,30.16,40.0,NNE,11.5,20.7,N/A,,Scattered Clouds,30,2012-10-11 20:47:00
3:52 PM,62.6,35.6,37,30.17,40.0,NE,9.2,-,N/A,,Scattered Clouds,50,2012-10-11 21:52:00
4:47 PM,60.8,35.6,39,30.19,40.0,NE,10.4,-,N/A,,Scattered Clouds,40,2012-10-11 22:47:00
5:47 PM,57.2,35.6,44,30.20,40.0,NE,11.5,-,N/A,,Scattered Clouds,40,2012-10-11 23:47:00
7:47 PM,48.2,35.6,62,30.25,40.0,ENE,9.2,-,N/A,,Partly Cloudy,70,2012-10-12 01:47:00
8:47 PM,44.6,35.6,71,30.26,40.0,East,8.1,-,N/A,,Partly Cloudy,90,2012-10-12 02:47:00
9:16 PM,44.6,35.6,71,30.27,10.0,ESE,10.4,-,N/A,,Clear,120,2012-10-12 03:16:00
9:56 PM,44.6,35.6,71,30.27,10.0,SE,11.5,-,N/A,,Scattered Clouds,130,2012-10-12 03:56:00
10:15 PM,44.6,33.8,66,30.27,10.0,SE,13.8,-,N/A,,Scattered Clouds,140,2012-10-12 04:15:00
10:35 PM,44.6,33.8,66,30.26,10.0,SE,12.7,-,N/A,,Clear,130,2012-10-12 04:35:00
10:50 PM,44.6,33.8,66,30.25,10.0,ESE,12.7,-,N/A,,Clear,120,2012-10-12 04:50:00
11:15 PM,42.8,33.8,70,30.26,10.0,SE,12.7,-,N/A,,Clear,130,2012-10-12 05:15:00
11:36 PM,42.8,33.8,70,30.25,10.0,ESE,12.7,-,N/A,,Clear,120,2012-10-12 05:36:00
11:56 PM,42.8,33.8,70,30.24,10.0,SE,16.1,-,N/A,,Clear,130,2012-10-12 05:56:00